TimeCDT,TemperatureF,Dew PointF,Humidity,Sea Level PressureIn,VisibilityMPH,Wind Direction,Wind SpeedMPH,Gust SpeedMPH,PrecipitationIn,Events,Conditions,WindDirDegrees,DateUTC
12:13 AM,50.0,48.2,94,30.05,10.0,South,3.5,-,N/A,,Clear,180,2013-09-03 05:13:00
12:32 AM,51.8,50.0,94,30.05,10.0,South,4.6,-,N/A,,Clear,190,2013-09-03 05:32:00
12:52 AM,50.0,48.2,94,30.05,10.0,South,5.8,-,N/A,,Clear,190,2013-09-03 05:52:00
1:13 AM,51.8,50.0,94,30.05,10.0,South,4.6,-,N/A,,Clear,190,2013-09-03 06:13:00
1:32 AM,51.8,48.2,88,30.05,10.0,SSW,5.8,-,N/A,,Clear,200,2013-09-03 06:32:00
1:52 AM,51.8,48.2,88,30.05,10.0,SSW,4.6,-,N/A,,Clear,200,2013-09-03 06:52:00
2:13 AM,50.0,48.2,94,30.05,10.0,South,4.6,-,N/A,,Clear,190,2013-09-03 07:13:00
2:32 AM,50.0,48.2,94,30.05,10.0,South,3.5,-,N/A,,Clear,190,2013-09-03 07:32:00
2:53 AM,48.2,48.2,100,30.05,10.0,South,3.5,-,N/A,,Clear,180,2013-09-03 07:53:00
3:13 AM,48.2,46.4,93,30.05,10.0,South,3.5,-,N/A,,Clear,190,2013-09-03 08:13:00
3:32 AM,48.2,46.4,93,30.05,10.0,Calm,Calm,-,N/A,,Clear,0,2013-09-03 08:32:00
3:53 AM,48.2,48.2,100,30.05,10.0,Calm,Calm,-,N/A,,Clear,0,2013-09-03 08:53:00
4:13 AM,46.4,46.4,100,30.05,10.0,South,3.5,-,N/A,,Clear,190,2013-09-03 09:13:00
4:32 AM,46.4,46.4,100,30.06,10.0,Calm,Calm,-,N/A,,Clear,0,2013-09-03 09:32:00
4:53 AM,48.2,46.4,93,30.06,10.0,South,3.5,-,N/A,,Clear,180,2013-09-03 09:53:00
5:13 AM,46.4,46.4,100,30.06,10.0,South,3.5,-,N/A,,Clear,190,2013-09-03 10:13:00
5:32 AM,48.2,48.2,100,30.06,10.0,South,3.5,-,N/A,,Clear,180,2013-09-03 10:32:00
5:53 AM,48.2,46.4,93,30.06,10.0,South,3.5,-,N/A,,Clear,170,2013-09-03 10:53:00
6:12 AM,48.2,46.4,93,30.07,10.0,SSW,3.5,-,N/A,,Clear,200,2013-09-03 11:12:00
6:32 AM,48.2,46.4,93,30.07,10.0,South,4.6,-,N/A,,Clear,180,2013-09-03 11:32:00
6:53 AM,48.2,48.2,100,30.07,10.0,South,5.8,-,N/A,,Clear,180,2013-09-03 11:53:00
7:12 AM,50.0,48.2,94,30.06,10.0,South,4.6,-,N/A,,Clear,170,2013-09-03 12:12:00
7:32 AM,51.8,48.2,88,30.07,10.0,South,4.6,-,N/A,,Clear,180,2013-09-03 12:32:00
7:53 AM,51.8,50.0,94,30.06,10.0,South,5.8,-,N/A,,Clear,190,2013-09-03 12:53:00
8:12 AM,51.8,51.8,100,30.06,10.0,South,5.8,-,N/A,,Clear,190,2013-09-03 13:12:00
8:32 AM,55.4,53.6,94,30.06,10.0,South,5.8,-,N/A,,Clear,190,2013-09-03 13:32:00
8:53 AM,57.2,53.6,88,30.06,10.0,SSW,6.9,-,N/A,,Clear,200,2013-09-03 13:53:00
9:12 AM,57.2,55.4,94,30.06,10.0,South,5.8,-,N/A,,Clear,190,2013-09-03 14:12:00
9:32 AM,59.0,55.4,88,30.06,10.0,SSW,4.6,-,N/A,,Clear,200,2013-09-03 14:32:00
9:53 AM,60.8,55.4,82,30.06,10.0,South,5.8,-,N/A,,Clear,190,2013-09-03 14:53:00
10:12 AM,64.4,55.4,73,30.06,10.0,South,5.8,-,N/A,,Clear,170,2013-09-03 15:12:00
10:32 AM,66.2,55.4,68,30.06,10.0,SW,6.9,-,N/A,,Clear,220,2013-09-03 15:32:00
10:53 AM,66.2,57.2,73,30.06,10.0,SSW,6.9,-,N/A,,Clear,200,2013-09-03 15:53:00
11:12 AM,68.0,57.2,68,30.06,10.0,SSW,5.8,-,N/A,,Clear,200,2013-09-03 16:12:00
11:32 AM,69.8,57.2,64,30.06,10.0,South,4.6,-,N/A,,Clear,190,2013-09-03 16:32:00
11:53 AM,71.6,59.0,64,30.05,10.0,SSE,5.8,-,N/A,,Clear,160,2013-09-03 16:53:00
12:12 PM,71.6,60.8,69,30.05,10.0,South,5.8,-,N/A,,Clear,190,2013-09-03 17:12:00
12:33 PM,71.6,60.8,69,30.04,10.0,South,6.9,-,N/A,,Clear,190,2013-09-03 17:33:00
12:52 PM,75.2,60.8,61,30.04,10.0,South,6.9,-,N/A,,Clear,190,2013-09-03 17:52:00
1:12 PM,75.2,59.0,57,30.03,10.0,South,6.9,-,N/A,,Clear,180,2013-09-03 18:12:00
1:33 PM,77.0,57.2,50,30.03,10.0,SSW,5.8,-,N/A,,Clear,200,2013-09-03 18:33:00
1:53 PM,78.8,59.0,51,30.03,10.0,SSW,10.4,-,N/A,,Clear,210,2013-09-03 18:53:00
2:12 PM,78.8,57.2,47,30.02,10.0,SW,5.8,-,N/A,,Clear,220,2013-09-03 19:12:00
2:33 PM,78.8,57.2,47,30.02,10.0,SW,6.9,-,N/A,,Clear,220,2013-09-03 19:33:00
2:52 PM,80.6,57.2,45,30.01,10.0,SW,10.4,-,N/A,,Clear,220,2013-09-03 19:52:00
3:12 PM,78.8,57.2,47,30.00,10.0,SSW,8.1,-,N/A,,Clear,210,2013-09-03 20:12:00
3:33 PM,77.0,60.8,57,30.00,10.0,SSW,9.2,-,N/A,,Clear,210,2013-09-03 20:33:00
3:52 PM,77.0,59.0,54,29.99,10.0,SW,8.1,-,N/A,,Clear,220,2013-09-03 20:52:00
4:12 PM,78.8,60.8,54,29.99,10.0,SW,5.8,-,N/A,,Clear,220,2013-09-03 21:12:00
4:33 PM,78.8,60.8,54,30.00,10.0,SW,4.6,-,N/A,,Clear,220,2013-09-03 21:33:00
4:52 PM,78.8,60.8,54,29.99,10.0,SSW,6.9,-,N/A,,Clear,210,2013-09-03 21:52:00
5:12 PM,78.8,60.8,54,30.00,10.0,South,5.8,-,N/A,,Clear,180,2013-09-03 22:12:00
5:33 PM,78.8,60.8,54,30.00,10.0,SSW,5.8,-,N/A,,Clear,200,2013-09-03 22:33:00
5:52 PM,78.8,62.6,57,29.99,10.0,SSW,8.1,-,N/A,,Clear,200,2013-09-03 22:52:00
6:12 PM,78.8,62.6,57,29.99,10.0,South,5.8,-,N/A,,Clear,170,2013-09-03 23:12:00
6:33 PM,77.0,62.6,61,29.99,10.0,South,5.8,-,N/A,,Clear,180,2013-09-03 23:33:00
6:52 PM,75.2,62.6,65,29.99,10.0,South,5.8,-,N/A,,Clear,180,2013-09-03 23:52:00
7:13 PM,75.2,64.4,69,29.99,10.0,South,3.5,-,N/A,,Clear,170,2013-09-04 00:13:00
7:32 PM,73.4,64.4,73,29.99,10.0,South,3.5,-,N/A,,Clear,170,2013-09-04 00:32:00
7:52 PM,71.6,64.4,78,30.00,10.0,SSE,4.6,-,N/A,,Clear,160,2013-09-04 00:52:00
8:13 PM,71.6,62.6,73,30.00,10.0,South,5.8,-,N/A,,Clear,170,2013-09-04 01:13:00
8:33 PM,69.8,62.6,78,30.00,10.0,South,4.6,-,N/A,,Clear,180,2013-09-04 01:33:00
8:52 PM,69.8,62.6,78,30.00,10.0,South,4.6,-,N/A,,Clear,180,2013-09-04 01:52:00
9:13 PM,69.8,62.6,78,30.00,10.0,South,5.8,-,N/A,,Clear,170,2013-09-04 02:13:00
9:32 PM,69.8,62.6,78,30.00,10.0,South,4.6,-,N/A,,Clear,170,2013-09-04 02:32:00
9:52 PM,68.0,62.6,83,30.00,10.0,South,5.8,-,N/A,,Clear,180,2013-09-04 02:52:00
10:13 PM,66.2,60.8,83,30.00,10.0,South,4.6,-,N/A,,Clear,180,2013-09-04 03:13:00
10:32 PM,68.0,60.8,78,30.01,10.0,South,4.6,-,N/A,,Clear,170,2013-09-04 03:32:00
10:52 PM,66.2,60.8,83,30.01,10.0,SSE,3.5,-,N/A,,Clear,160,2013-09-04 03:52:00
11:13 PM,66.2,60.8,83,30.01,10.0,South,3.5,-,N/A,,Clear,180,2013-09-04 04:13:00
11:32 PM,64.4,60.8,88,30.02,10.0,Calm,Calm,-,N/A,,Clear,0,2013-09-04 04:32:00
11:53 PM,64.4,60.8,88,30.01,10.0,South,3.5,-,N/A,,Clear,190,2013-09-04 04:53:00